TimeCST,TemperatureF,Dew PointF,Humidity,Sea Level PressureIn,VisibilityMPH,Wind Direction,Wind SpeedMPH,Gust SpeedMPH,PrecipitationIn,Events,Conditions,WindDirDegrees,DateUTC
12:52 AM,21.0,17.1,85,30.23,7.0,South,3.5,-,N/A,,Overcast,170,2013-03-03 06:52:00
1:52 AM,24.1,19.9,84,30.22,7.0,South,3.5,-,N/A,,Overcast,170,2013-03-03 07:52:00
2:52 AM,25.0,19.9,81,30.19,7.0,SSE,6.9,-,N/A,,Overcast,160,2013-03-03 08:52:00
3:52 AM,24.1,19.9,84,30.17,7.0,South,6.9,-,N/A,,Overcast,170,2013-03-03 09:52:00
4:52 AM,25.0,19.0,78,30.17,8.0,SSE,10.4,-,N/A,,Overcast,160,2013-03-03 10:52:00
5:52 AM,26.6,19.4,74,30.12,9.0,SSE,8.1,-,N/A,,Overcast,160,2013-03-03 11:52:00
6:52 AM,26.1,19.9,78,30.16,8.0,SSE,10.4,-,N/A,,Clear,160,2013-03-03 12:52:00
7:52 AM,28.0,21.0,75,30.15,9.0,SSE,9.2,-,N/A,,Clear,160,2013-03-03 13:52:00
8:52 AM,30.9,21.9,69,30.14,10.0,South,10.4,-,N/A,,Partly Cloudy,170,2013-03-03 14:52:00
9:52 AM,35.1,21.9,59,30.12,10.0,SSE,10.4,-,N/A,,Overcast,160,2013-03-03 15:52:00
10:52 AM,37.9,21.9,53,30.10,10.0,SSE,10.4,-,N/A,,Overcast,160,2013-03-03 16:52:00
11:52 AM,42.1,23.0,47,30.07,10.0,SE,12.7,-,N/A,,Overcast,140,2013-03-03 17:52:00
12:52 PM,46.0,26.1,46,30.02,10.0,SSE,11.5,-,N/A,,Partly Cloudy,150,2013-03-03 18:52:00
1:52 PM,48.9,27.0,43,29.97,10.0,SSE,15.0,-,N/A,,Clear,160,2013-03-03 19:52:00
2:52 PM,52.0,27.0,38,29.93,10.0,SSE,16.1,-,N/A,,Clear,160,2013-03-03 20:52:00
3:52 PM,53.1,27.0,37,29.90,10.0,SSE,18.4,-,N/A,,Clear,150,2013-03-03 21:52:00
4:52 PM,51.1,27.0,39,29.89,10.0,SSE,18.4,-,N/A,,Clear,150,2013-03-03 22:52:00
5:52 PM,48.9,26.1,41,29.88,10.0,SE,16.1,-,N/A,,Clear,140,2013-03-03 23:52:00
6:52 PM,48.0,26.1,42,29.89,10.0,SE,13.8,24.2,N/A,,Clear,130,2013-03-04 00:52:00
7:52 PM,46.9,26.1,44,29.87,10.0,SSE,19.6,-,N/A,,Clear,150,2013-03-04 01:52:00
8:52 PM,45.0,26.1,48,29.87,10.0,SSE,19.6,-,N/A,,Clear,160,2013-03-04 02:52:00
9:52 PM,44.1,26.1,49,29.86,10.0,SSE,20.7,27.6,N/A,,Clear,150,2013-03-04 03:52:00
10:52 PM,43.0,26.1,51,29.86,10.0,SSE,17.3,25.3,N/A,,Clear,150,2013-03-04 04:52:00
11:52 PM,41.0,26.1,55,29.83,10.0,SE,19.6,26.5,N/A,,Clear,140,2013-03-04 05:52:00